map of LRT home
LRT - Airport
Location
City:  Lorient, Bretagne, France
Name:Lann Bihoue
ICAO:LFRH
IATA:LRT

Details
Type:Airport (Aerodrome, Airfield)
Use:Military
Latitude:4745'38"N (47.760533)
Longitude:326'24"W (-3.439952)
Elevation:169 ft (52 m)
Variation:0.83W (WMM2015v2 magnetic declination)
0.18 annual change
Runways:2
Longest:7884 × 148 ft (2403 × 45 m)

Time
Time Zone:UTC+1 (DST+2)
Local Time:

Weather
METAR:LFRH 041400Z AUTO 03005KT 9999 OVC003 10/10 Q1017 BECMG 32010KT 2500 BR
TAF:LFRH 041100Z 0412/0512 18015G25KT 4000 RA BR OVC004
BECMG 0413/0415 32010KT 2500 BR OVC003 PROB30
TEMPO 0418/0512 0600 FG VV///
BECMG 0422/0424 13007KT
BECMG 0503/0505 4000 -RADZ

Related Locations
Nearby:
Farthest:NZTI: 12116 mi / 19499 km
Taieri, OTA, NZ

Find:

   beyond  
but within

Other Information
Maps:
NOTAMs:
Links:
Sources:

  
  • flag of France
  • flag of Bretagne
  

Sectional Chart

Flight Planning
at skyvector.com

Satellite Image

Google Maps Satellite view

 

Copyright © 2004-2019 Karl L. Swartz. All rights reserved.
The Great Circle Mapper name and logo are trademarks of the Great Circle Mapper.
All other trademarks mentioned herein belong to their respective owners.
Please see credits for attibutions and further copyright information.

  Follow gcmap on Facebook Follow gcmap on Twitter GCmap on LinkedIn

hCard Microformat

Geo Microformat